Regional Weather Roundup
Issued by NWS Nashville, TN

Home | Current Version | Previous Version | Text Only | Print | Product List | Glossary On
Versions: 1 2 3 4 5 6 7 8 9 10 11 12 13 14 15 16 17 18 19 20 21 22 23 24 25 26 27 28 29 30 31 32 33 34 35 36 37 38 39 40 41 42 43 44 45 46 47 48 49 50
000
ASUS44 KOHX 231805
RWROHX
MIDDLE TENNESSEE HOURLY WEATHER ROUNDUP
NATIONAL WEATHER SERVICE NASHVILLE TN
100 PM CDT WED JUL 23 2014

NOTE: "FAIR" INDICATES FEW OR NO CLOUDS BELOW 12,000 FEET WITH
NO SIGNIFICANT WEATHER AND/OR OBSTRUCTIONS TO VISIBILITY.

* THESE REPORTS ARE NOT UNDER NWS QUALITY CONTROL AND MAY NOT
  REPORT WEATHER SUCH AS PRECIPITATION AND FOG.


TNZ005>011-023>034-057-059-062>066-078-080-231900
...NORTHERN MIDDLE TENNESSEE...

CITY           SKY/WX    TMP DP  RH WIND       PRES   REMARKS
CLARKSVILLE    PTSUNNY   87  72  60 W9        30.06F HX  93
CROSSVILLE     LGT RAIN  74  68  81 N13       30.13F
NASHVILLE      PTSUNNY   92  69  47 SW3       30.05F HX  97
SMYRNA         PTSUNNY   94  73  50 NW6       30.06F HX 103
SPARTA         SUNNY     84  75  74 CALM      30.08F HX  92
$$
TNZ056-058-060-061-075>077-079-093>097-231900
...SOUTHERN MIDDLE TENNESSEE...

CITY           SKY/WX    TMP DP  RH WIND       PRES   REMARKS
COLUMBIA       SUNNY     91  73  55 VRB3      30.06F HX 100
FAYETTEVILLE   MOSUNNY   82  72  69 VRB6      30.09F
MCMINNVILLE    MOSUNNY   73  73 100 SW3       30.11S
SHELBYVILLE    MOSUNNY   84  73  70 SW5       30.09F HX  91
TULLAHOMA      SUNNY     82  70  65 CALM      30.11S
WINCHESTER     SUNNY     82  72  69 CALM      30.09F
$$


...KEY TO REMARKS...
VSB - VISIBILITY IN MILES
WCI - WIND CHILL INDEX
HX  - HEAT INDEX




USA.gov is the U.S. government's official web portal to all federal, state and local government web resources and services.